CAPE
0 0 0 0 0 0 0 0 0 0 0 0 0 0 0 0 0 0 0 0 0 0 0 0 0 0 0 0 0 4 24 695 599 743 935 1072 1584 1813 1878 1838 1793 1745 1810 1730 1336 1156 1138 1270 1663 1986 2555 2453 2283 2180 2062 1779 1550 1780 1745 1877 1841 1899 2034 1891 1996 1879 1860 1816 1748 1573 1492 1572 1582 1574 1468 1445 1556 1741 1706 1650 1368 1058 870 843 872 861
0 0 0 0 0 0 0 0 0 0 0 0 0 0 0 0 0 0 0 0 0 0 0 0 0 0 0 0 0 0 234 616 621 828 869 922 1326 1470 1534 1674 1840 1750 1712 1558 1357 1244 1360 1388 1827 2140 2427 2595 2348 2319 2209 2082 2140 2055 1872 1566 1593 1692 1667 1636 1590 1463 1353 1315 1639 1538 1686 1643 1611 1704 1615 1646 1728 1767 1745 1802 1637 1265 991 1096 1064 992
0 0 0 0 0 0 0 0 0 0 0 0 0 0 0 0 0 0 0 0 0 0 0 0 0 0 0 0 0 11 487 598 711 1007 930 956 1164 1258 1415 1609 1688 1661 1636 1602 1584 1604 1761 1719 2267 2434 2739 2648 2531 2383 2200 1966 1879 1921 1860 1858 1892 1821 1677 1338 1790 1775 1764 1716 1669 1624 1494 1493 1458 1455 1560 1581 1654 1554 1503 1567 1490 1449 1296 1276 1303 1258
0 0 0 0 0 0 0 0 0 0 0 0 0 0 0 0 0 0 0 0 0 0 0 0 0 0 0 0 0 78 618 807 1014 1129 993 910 973 1231 1560 1615 1527 1578 1661 1744 1828 2058 2155 2295 2493 2489 2478 2507 2307 2129 2194 2186 2059 1776 1646 1545 1307 1491 1778 1496 1469 1497 1587 1454 1401 1288 1107 1064 1184 1334 1397 1371 1357 1286 1663 1498 1364 1483 1411 1234 1151 1123
0 0 0 0 0 0 0 0 0 0 0 0 0 0 0 0 0 0 0 0 0 0 0 0 0 0 0 0 0 424 832 839 1118 1169 1069 934 1034 1249 1257 1400 1559 1696 1826 1909 2075 2113 2255 2346 2285 2356 2336 2474 2215 2095 2155 1882 2018 1740 1510 1681 1568 1370 1737 1515 1250 1356 1402 1420 1477 1461 1358 1221 1268 1357 1308 1234 1366 1188 1158 1588 1489 1026 892 956 792 958
0 0 0 0 0 0 0 0 0 0 0 0 0 0 0 0 0 0 0 0 0 0 0 0 0 0 0 0 0 784 935 848 1088 1072 874 935 1009 841 1191 1500 1756 1749 1913 1902 2016 2048 2142 2179 2150 2368 2291 1978 1834 1812 1785 1884 2173 1879 1576 1501 1853 1395 1325 1967 1554 1501 1452 1397 1396 1520 1552 1592 1622 1711 1725 1700 1614 1464 1466 1422 1547 1231 1004 993 1088 1160
0 0 0 0 0 0 0 0 0 0 0 0 0 0 0 0 0 0 0 0 0 0 0 0 0 0 0 0 168 651 846 842 1023 910 910 711 736 709 715 1212 1594 1681 1724 1876 1962 1974 2193 2133 2101 2167 1998 1932 1836 1698 1712 1780 1783 1802 1728 1798 1785 1813 1933 1494 1918 1718 1444 1671 1401 1558 1586 1420 1375 1432 1516 1658 1766 1559 1515 1558 1465 1438 1052 962 852 954
0 0 0 0 0 0 0 0 0 0 0 0 0 0 0 0 0 0 0 0 0 0 0 0 0 0 0 0 2 765 954 789 938 916 930 1081 1172 1098 958 963 1334 1389 1298 1597 1886 1842 1950 2047 1986 1932 1922 1778 1844 1659 1691 1672 1764 1782 1741 1810 1758 1669 1615 2162 1914 1852 1643 1595 1907 1788 1894 1914 1835 1646 1681 1669 1455 1312 1415 1558 1602 1360 1231 942 994 1078
0 0 0 0 0 0 0 0 0 0 0 0 0 0 0 0 0 0 0 5 0 0 0 0 0 0 0 0 0 104 704 804 899 1053 1112 1256 1424 1412 1165 1127 1056 1122 1414 1648 1730 1854 1916 1904 1828 1805 1886 1879 1787 1624 1444 1517 1534 1633 1634 1707 1660 1607 1511 1504 1540 1529 1554 1558 1508 1624 1790 1698 1665 1471 1413 1368 1244 984 1062 1056 1066 1398 1317 1253 1212 1107
0 0 0 0 0 0 0 0 0 0 0 0 0 0 0 0 0 0 0 0 0 0 0 1 0 0 0 0 1 39 708 816 944 985 1076 1204 1271 1378 1497 1398 1410 1406 1487 1618 1666 1669 1844 1946 1859 1777 1730 1562 1501 1462 1434 1167 1138 1208 1332 1177 1156 1067 1300 1426 1372 1398 1392 1354 1263 1126 1229 1154 1066 1133 1108 996 915 878 865 886 898 906 1192 1344 1287 1211
0 0 0 0 0 0 0 0 0 0 0 0 0 0 0 0 0 0 0 0 0 0 0 0 0 0 0 0 0 4 536 716 768 851 959 1146 1271 1384 1453 1510 1551 1405 1564 1743 1633 1646 1688 1739 1737 1610 1560 1476 1307 1229 1159 1129 1033 1073 1053 1002 1152 940 786 787 737 655 628 728 877 912 970 908 919 996 1027 939 861 834 849 867 876 924 961 1169 1280 1170
0 0 0 0 0 0 0 0 0 0 0 0 0 0 0 0 0 0 0 0 0 0 0 0 0 0 0 0 0 2 168 771 878 869 805 1014 1228 1441 1547 1559 1349 1232 1473 1603 1600 1528 1496 1530 1594 1484 1518 1395 1311 1094 987 998 1046 1038 940 853 842 856 718 637 598 547 482 507 652 682 684 767 778 795 819 811 738 723 720 741 691 706 742 854 1086 1047
0 0 0 0 0 0 0 0 0 0 0 0 0 0 0 0 0 0 0 0 0 0 0 0 0 0 0 830 579 415 65 900 829 793 865 1092 1228 1406 1425 1159 1059 1215 1388 1386 1354 1394 1430 1440 1472 1466 1440 1340 1214 1052 962 906 996 960 860 815 740 742 669 646 581 482 369 402 473 528 474 587 638 643 666 682 645 557 611 677 709 730 761 739 730 805
0 0 0 0 0 0 0 0 0 0 0 0 0 0 0 0 0 0 0 0 0 0 0 0 0 0 169 889 818 911 810 922 794 756 928 1136 1284 1296 1190 1106 1098 1145 1288 1271 1221 1260 1461 1463 1454 1366 1301 1220 1125 905 814 879 1022 903 782 744 734 709 691 662 540 290 270 287 275 298 327 349 382 421 429 597 581 567 678 627 592 664 652 643 677 722
0 0 0 0 0 0 0 0 0 0 0 0 0 0 0 0 0 0 0 0 0 0 0 0 0 39 221 1259 1016 1114 899 808 740 737 841 1106 1145 1177 1128 1139 1178 1236 1266 1279 1295 1242 1314 1321 1353 1258 1139 1028 926 781 896 1156 1215 1040 902 839 857 798 706 534 314 3 13 18 47 79 62 79 98 267 314 321 454 522 568 527 554 582 536 478 476 485
0 0 0 0 0 0 0 0 0 0 0 0 0 0 0 0 0 0 0 0 0 0 0 250 611 758 482 806 1234 1140 884 882 735 778 770 1039 1031 1033 1128 1052 1068 1048 1158 1212 1283 1280 1178 1262 1296 1153 1024 950 868 933 1089 1170 1196 1127 975 860 791 690 529 161 0 0 0 0 2 11 20 16 42 77 95 183 319 416 564 511 618 650 611 531 469 450
0 0 0 0 0 0 0 0 0 0 0 0 0 0 0 0 0 0 0 0 0 0 0 688 462 576 586 759 1096 1127 976 903 886 851 783 667 653 655 759 785 862 833 824 917 1029 990 996 1118 1179 1131 935 794 809 855 907 1008 1015 952 860 758 611 409 49 0 0 0 1 0 0 0 8 12 22 51 87 168 208 380 537 521 587 618 623 565 487 452
0 0 0 0 0 0 0 0 0 0 0 0 0 0 0 0 0 0 0 0 0 0 55 441 569 483 700 451 778 782 1021 854 915 928 849 823 756 652 659 654 670 702 719 717 684 627 682 824 831 699 492 457 579 701 820 876 859 774 677 488 88 0 1 0 0 0 4 6 22 21 12 19 22 64 113 176 290 380 432 449 431 462 527 519 470 456
0 0 0 0 0 0 0 0 0 0 0 0 0 0 0 0 0 0 0 0 0 0 16 501 509 551 590 618 604 721 748 864 756 852 860 858 943 953 830 830 815 756 702 630 499 432 436 515 556 389 386 508 663 753 795 748 694 520 245 0 0 2 6 0 0 2 2 3 6 8 6 4 2 19 89 226 348 358 323 395 230 414 416 455 441 454
0 0 0 0 0 0 0 0 0 0 0 0 0 0 0 0 0 0 0 0 0 0 0 429 383 525 462 786 692 730 686 735 676 626 697 673 687 779 804 761 705 654 597 441 346 327 248 290 169 114 498 621 677 694 635 464 65 0 0 0 0 0 0 0 1 1 0 3 8 8 4 0 36 109 170 239 339 346 333 349 325 417 282 388 374 393
0 3 0 0 0 0 0 0 0 0 0 0 0 0 0 0 0 0 0 0 0 0 0 236 295 396 470 415 700 704 685 614 573 582 565 590 542 466 421 417 376 295 204 173 126 0 0 0 0 407 496 554 484 285 52 0 0 0 0 0 0 0 0 2 6 4 3 9 13 10 4 4 18 36 80 158 201 232 241 203 357 366 283 241 387 374
4 3 6 0 0 0 0 0 0 0 0 0 0 0 0 0 0 0 0 0 0 0 14 69 155 469 628 476 590 669 625 564 497 549 557 556 454 383 306 276 121 98 89 59 9 0 0 34 360 524 390 183 11 5 0 0 0 0 0 1 0 2 4 6 9 11 11 10 11 7 1 0 2 19 0 15 29 97 91 111 255 253 174 219 367 364
4 0 10 0 0 0 0 0 0 0 0 0 0 0 0 0 0 0 0 1 0 0 13 29 263 374 520 555 619 606 669 584 556 550 539 477 417 316 236 168 102 70 30 13 2 103 315 400 360 152 86 0 0 0 0 0 0 0 0 0 0 4 7 9 11 13 12 13 15 11 1 2 4 10 0 0 1 2 13 12 148 143 87 133 130 313
129 5 3 0 0 0 0 0 0 0 0 0 0 0 0 0 0 0 0 0 0 0 0 132 356 545 407 596 620 492 586 607 655 648 522 423 335 257 154 50 34 19 6 0 18 367 357 201 28 0 0 0 0 0 0 0 0 0 0 0 2 1 1 5 9 10 10 12 9 2 0 0 1 2 1 0 1 2 5 4 3 19 2 36 92 121
0 5 5 1 0 0 3 2 0 0 0 0 0 0 0 0 0 0 0 0 2 1 0 21 572 491 399 524 600 408 536 644 581 545 485 452 366 276 208 10 22 41 24 173 326 236 197 0 0 0 0 0 0 0 0 0 0 1 5 6 4 0 2 8 6 3 4 2 0 0 0 0 0 1 2 1 1 0 1 2 1 0 2 3 31 64
0 1 4 1 0 0 0 0 0 0 0 0 0 0 0 0 0 0 0 1 0 0 10 366 574 426 397 466 535 478 520 575 491 388 337 268 234 154 18 36 70 23 152 336 246 49 40 3 2 3 29 0 0 1 1 0 0 1 2 2 0 1 3 0 0 0 0 0 0 2 3 2 1 0 0 2 2 1 0 0 0 0 0 1 3 5
4 1 9 11 1 0 0 0 0 0 0 0 0 0 5 3 0 0 0 0 0 0 115 442 539 332 404 448 506 330 479 550 497 358 305 267 189 209 75 58 46 66 235 231 107 5 8 7 3 1 0 1 0 0 0 2 1 0 0 0 0 0 0 0 0 0 0 0 2 4 3 1 0 0 1 3 1 2 1 0 0 0 1 0 1 4
1 6 7 9 7 0 0 0 0 0 0 0 0 0 0 6 3 0 0 0 0 120 425 495 459 366 412 405 424 335 421 465 365 235 217 196 11 7 39 33 12 166 188 125 31 10 7 3 1 1 2 1 0 0 0 0 0 0 0 0 0 0 0 0 0 1 3 2 2 2 1 0 0 1 2 3 3 3 1 0 0 0 1 1 0 1
4 0 7 13 13 4 6 3 2 13 51 98 2 6 3 8 3 1 0 25 9 6 252 551 464 364 400 376 365 333 316 338 286 222 159 136 18 8 16 45 123 207 146 10 10 8 4 3 3 1 1 1 1 0 0 0 0 0 0 0 0 0 0 0 0 3 2 1 0 0 0 0 3 2 1 1 3 2 2 1 0 1 2 1 0 1
0 40 78 1 13 5 15 31 122 85 92 30 168 167 182 168 117 3 4 5 9 82 378 536 453 393 363 318 286 279 248 282 244 221 197 190 156 5 2 3 96 107 12 10 8 6 4 1 1 0 2 2 0 0 0 0 0 0 0 0 0 0 0 0 0 1 1 0 0 0 0 2 4 1 2 3 1 1 2 1 0 1 2 2 1 0
2 136 170 29 8 18 18 6 5 42 25 26 191 107 249 293 279 52 289 688 635 528 540 482 408 466 376 262 300 266 234 270 230 157 190 106 61 16 0 1 184 154 139 102 93 76 1 2 2 1 0 0 0 0 0 0 0 0 0 0 0 0 0 0 0 0 1 0 2 3 2 4 2 2 2 4 4 4 2 0 0 0 0 1 0 1
56 171 160 79 2 10 15 8 1 76 26 8 123 128 415 612 485 632 657 715 606 666 574 507 445 457 372 298 308 241 214 282 252 201 170 199 50 0 0 191 210 199 160 144 98 78 2 2 1 0 0 0 0 0 0 0 0 0 0 0 0 0 0 0 0 0 1 1 1 3 4 4 1 2 2 4 2 1 0 0 0 0 0 1 0 0
0 64 83 47 14 34 182 202 31 23 0 0 61 157 560 736 998 874 807 791 737 677 656 453 427 549 529 368 348 275 253 258 272 150 169 224 141 0 178 239 255 213 206 145 106 75 27 1 1 1 1 0 0 0 0 0 0 0 0 0 0 0 0 0 0 0 1 0 1 1 4 2 1 2 1 1 0 0 0 0 0 0 0 0 1 1
6 0 28 0 1 192 176 196 99 1 16 92 377 294 363 653 708 769 773 666 700 607 508 450 453 580 527 461 366 305 286 272 172 172 170 204 108 13 193 246 244 240 205 138 95 89 4 1 1 0 1 0 0 0 0 0 0 0 0 0 0 0 0 0 0 1 1 1 3 4 3 3 3 2 0 1 0 0 0 0 0 1 1 2 2 2
10 0 0 0 15 25 212 87 41 33 19 312 196 342 455 404 398 305 596 718 724 693 515 422 323 470 432 453 390 294 272 224 108 100 62 81 60 27 188 232 266 246 200 159 137 106 44 7 0 0 0 0 1 0 0 0 0 0 0 0 0 0 0 1 1 2 1 0 2 3 4 4 3 2 0 1 0 0 0 0 0 0 0 0 0 0
0 0 0 0 0 87 50 64 60 6 118 59 262 348 469 379 263 293 623 639 647 560 456 219 408 396 430 458 420 340 262 217 97 103 93 44 4 10 182 221 244 205 184 163 57 24 11 11 1 0 0 0 0 0 0 0 0 0 0 0 0 0 0 1 0 0 0 0 1 1 1 2 2 1 0 0 0 0 0 0 0 0 0 0 0 0
2 0 8 31 8 21 19 33 20 145 86 65 84 398 358 316 245 92 212 432 742 536 293 261 390 338 450 359 370 298 247 200 103 91 39 37 13 0 0 114 161 158 126 33 51 38 23 18 0 0 0 0 0 0 0 0 0 0 0 0 0 0 0 0 0 0 0 0 0 0 0 0 0 0 0 0 0 0 0 0 0 0 0 0 0 0
24 1 6 0 0 0 28 50 61 50 68 61 31 290 102 135 170 14 32 315 619 568 422 165 334 295 315 319 310 294 244 249 149 87 17 4 15 0 0 19 39 20 25 55 22 26 31 7 0 0 0 0 0 0 0 0 0 0 0 0 0 0 0 0 0 0 0 0 0 0 0 0 0 0 0 0 0 0 0 0 0 0 0 0 0 0
83 108 0 0 13 0 0 61 66 60 34 36 58 142 156 176 103 59 42 58 488 587 467 225 342 259 306 308 339 273 299 313 254 164 14 0 1 3 11 19 33 43 52 57 47 36 21 1 0 0 0 0 0 0 0 0 0 0 0 0 0 0 0 0 0 0 0 0 0 0 0 0 0 0 0 0 0 0 0 0 0 0 0 0 0 0
4 2 0 0 0 0 1 17 44 47 90 80 95 64 128 98 135 224 20 11 208 394 331 301 296 301 321 267 264 268 276 354 201 144 0 3 1 0 0 0 4 6 10 10 2 8 4 0 0 0 0 0 0 0 0 0 0 0 0 0 0 0 0 0 0 0 0 0 0 0 0 0 0 0 0 0 0 0 0 0 0 0 0 0 0 0
3 25 5 0 0 0 0 0 0 0 6 64 43 49 99 54 304 184 3 0 0 240 220 268 318 289 280 254 244 278 292 272 76 2 0 0 0 0 0 0 0 0 0 0 0 0 0 2 0 2 5 2 2 0 0 0 0 0 0 0 0 0 0 0 0 0 0 0 0 0 0 0 0 0 0 0 0 0 0 0 0 0 0 0 0 0
11 8 0 0 0 0 0 0 3 45 65 54 62 57 70 78 77 83 0 70 0 26 188 166 213 245 230 248 231 268 209 187 140 11 7 0 0 0 0 0 0 0 0 0 0 0 0 0 2 4 2 0 0 0 0 0 0 0 0 0 0 0 0 0 0 0 0 0 0 0 0 0 0 0 0 0 0 0 0 0 0 0 0 0 0 0
16 2 1 0 0 0 0 7 12 0 15 47 82 31 53 32 17 0 214 0 0 0 4 142 146 190 236 273 265 220 168 155 148 23 6 0 0 0 0 1 1 1 0 0 0 0 0 0 0 0 0 0 0 0 0 0 0 0 0 0 0 0 0 0 0 0 0 0 0 0 0 0 0 0 0 0 0 0 0 0 0 0 0 0 0 0
2 1 5 0 0 0 0 0 0 0 1 10 18 1 6 8 2 50 197 121 52 0 15 184 179 209 239 279 243 166 154 135 103 46 11 0 0 1 0 2 2 2 0 0 0 0 0 0 0 0 0 0 0 0 0 0 0 0 0 0 0 0 0 0 0 0 0 0 0 0 0 0 0 0 0 0 0 0 0 0 0 0 0 0 0 0
0 0 0 5 0 6 1 0 1 0 0 0 0 3 0 0 20 133 102 40 7 0 0 3 86 105 203 203 164 130 116 110 104 39 33 5 0 1 0 3 1 0 0 0 0 0 0 0 0 0 0 0 0 0 0 0 0 0 0 0 0 0 0 0 0 0 0 0 0 0 0 0 0 0 0 0 0 0 0 0 0 0 0 0 0 0
0 0 0 1 2 0 0 0 0 0 0 0 0 2 0 0 0 19 101 4 6 26 0 5 6 4 73 9 120 117 111 97 66 74 63 39 2 12 8 3 1 2 2 1 0 0 0 0 0 0 0 0 0 0 0 0 0 0 0 0 0 0 0 0 0 0 0 0 0 0 0 0 0 0 0 0 0 0 0 0 0 0 0 0 0 0
0 0 0 0 14 0 0 0 1 0 0 0 0 0 0 0 36 54 55 44 28 15 8 0 0 0 0 1 99 123 25 42 89 104 120 94 13 26 13 2 3 2 0 0 0 0 0 0 0 0 0 0 0 0 0 0 0 0 0 0 0 0 0 0 0 0 0 0 0 0 0 0 0 0 0 0 0 0 0 0 0 0 0 0 0 0
0 0 0 0 0 0 0 2 1 1 1 1 1 0 0 3 5 2 21 4 0 3 1 0 3 20 16 18 9 14 13 40 68 158 158 114 66 53 27 10 4 4 1 2 0 0 0 0 0 0 0 0 0 0 0 0 0 0 0 0 0 0 0 0 0 0 0 0 0 0 0 0 0 0 0 0 0 0 0 0 0 0 0 0 0 0
0 0 0 0 0 0 0 1 1 1 0 0 0 0 0 0 0 0 4 24 0 0 3 18 21 16 14 15 14 3 38 85 88 139 118 72 79 19 10 1 8 6 5 3 0 0 0 0 0 0 0 0 0 0 0 0 0 0 0 0 0 0 0 0 0 0 0 0 0 0 0 0 0 0 0 0 0 0 0 0 0 0 0 0 0 0
0 0 0 0 0 0 0 0 1 0 0 1 1 0 0 0 0 16 1 9 5 9 14 12 7 5 6 6 45 35 90 84 43 8 4 33 5 3 5 0 5 4 4 0 0 0 0 0 0 0 0 0 0 0 0 0 0 0 0 0 0 0 0 0 0 0 0 0 0 0 0 0 0 0 0 0 0 0 0 0 0 0 0 0 0 0
0 0 0 0 0 0 0 0 0 0 0 0 1 3 1 0 0 0 2 1 0 0 0 0 0 0 2 26 30 44 39 31 46 14 5 10 4 2 10 1 0 1 1 0 0 0 0 0 0 0 0 0 0 0 0 0 0 0 0 0 0 0 0 0 0 0 0 0 0 0 0 0 0 0 0 0 0 0 0 0 0 0 0 0 0 0
Wind_Speed
nan nan nan nan nan nan nan nan nan nan nan nan nan nan nan nan nan nan nan nan nan nan nan nan nan nan nan nan nan nan nan 33 35 40 37 34 30 27 26 29 33 31 28 29 29 26 30 28 15 16 16 16 17 16 14 17 17 18 18 18 17 16 17 17 17 18 19 20 21 21 23 23 22 22 22 21 21 23 24 24 25 25 26 26 27 27
nan nan nan nan nan nan nan nan nan nan nan nan nan nan nan nan nan nan nan nan nan nan nan nan nan nan nan nan nan nan 40 36 37 40 37 35 32 29 30 32 34 30 28 30 27 25 27 24 15 10 11 12 15 13 14 14 15 17 19 18 18 16 17 19 20 19 19 19 21 22 22 22 23 23 23 23 23 24 25 25 25 25 26 26 26 26
nan nan nan nan nan nan nan nan nan nan nan nan nan nan nan nan nan nan nan nan nan nan nan nan nan nan nan nan nan nan 36 34 37 38 34 36 35 32 32 33 33 32 31 26 25 25 23 19 16 16 14 14 13 14 15 16 17 18 18 18 18 18 19 19 20 20 21 20 21 21 21 22 21 22 25 24 22 21 22 24 24 26 27 28 28 28
nan nan nan nan nan nan nan nan nan nan nan nan nan nan nan nan nan nan nan nan nan nan nan nan nan nan nan nan nan nan 33 34 41 40 36 35 35 34 34 32 32 31 28 25 23 21 16 17 19 17 15 15 13 16 16 16 16 16 17 18 19 18 19 20 21 21 21 22 22 22 23 23 25 23 22 20 20 21 24 25 26 25 27 26 27 27
nan nan nan nan nan nan nan nan nan nan nan nan nan nan nan nan nan nan nan nan nan nan nan nan nan nan nan nan nan 27 32 41 45 40 37 34 35 36 35 31 29 27 24 23 22 20 18 19 19 18 16 16 17 16 16 15 16 16 18 19 19 18 19 20 20 21 21 21 21 20 21 22 22 22 22 21 20 20 20 22 25 27 27 27 27 27
nan nan nan nan nan nan nan nan nan nan nan nan nan nan nan nan nan nan nan nan nan nan nan nan nan nan nan nan nan 32 35 40 45 42 39 38 36 36 34 29 23 22 21 22 22 20 19 20 18 18 17 17 19 18 18 18 17 17 19 18 19 19 19 20 20 21 22 21 21 21 23 23 23 22 22 22 22 22 23 24 25 29 30 30 28 30
nan nan nan nan nan nan nan nan nan nan nan nan nan nan nan nan nan nan nan nan nan nan nan nan nan nan nan nan 23 33 35 39 44 45 44 41 36 32 29 25 20 21 25 23 22 21 20 18 17 16 16 18 19 17 18 19 20 22 21 19 19 19 19 19 20 20 20 20 19 20 22 23 23 22 21 23 24 26 25 25 26 29 35 29 30 31
nan nan nan nan nan nan nan nan nan nan nan nan nan nan nan nan nan nan nan nan nan nan nan nan nan nan nan nan nan 34 41 46 48 45 43 37 31 27 25 23 23 26 25 23 23 21 18 18 18 18 18 19 18 18 20 20 21 22 20 19 19 19 20 19 20 19 19 19 20 21 21 22 21 22 21 20 20 22 23 24 25 30 35 36 30 28
nan nan nan nan nan nan nan nan nan nan nan nan nan nan nan nan nan nan nan nan nan nan nan nan nan nan nan nan nan 37 46 47 46 44 42 38 32 30 27 25 28 29 25 24 23 21 22 22 21 20 20 18 19 20 21 21 21 20 18 17 16 19 19 20 21 20 20 21 21 21 22 22 21 22 21 21 22 21 22 22 23 26 36 36 36 35
nan nan nan nan nan nan nan nan nan nan nan nan nan nan nan nan nan nan nan nan nan nan nan nan nan nan nan nan nan nan 43 43 41 42 45 43 37 34 31 28 28 27 24 24 26 26 27 26 25 22 20 21 20 20 21 22 20 18 15 13 14 16 18 18 20 20 19 20 21 21 21 21 20 20 20 22 22 22 22 23 23 25 30 36 37 38
nan nan nan nan nan nan nan nan nan nan nan nan nan nan nan nan nan nan nan nan nan nan nan nan nan nan nan nan nan nan 33 42 42 43 45 44 40 36 33 31 28 25 22 22 24 25 26 27 26 24 24 23 22 22 24 23 21 16 14 13 16 19 23 22 21 21 20 19 20 20 19 18 17 17 20 21 22 22 22 23 24 26 27 33 37 39
nan nan nan nan nan nan nan nan nan nan nan nan nan nan nan nan nan nan nan nan nan nan nan nan nan nan nan nan nan nan 32 48 47 47 45 45 43 36 32 30 28 25 21 22 23 21 21 24 24 25 25 23 23 24 26 23 21 20 19 21 21 23 23 22 21 20 20 20 21 22 21 20 19 19 21 21 22 23 23 24 25 27 29 31 34 35
nan nan nan nan nan nan nan nan nan nan nan nan nan nan nan nan nan nan nan nan nan nan nan nan nan nan nan 37 36 32 nan 42 46 46 46 45 41 35 31 28 26 25 24 24 24 23 21 21 22 23 23 23 23 24 25 23 21 20 20 21 22 22 23 21 21 21 20 21 21 21 20 19 19 20 20 21 21 22 23 24 26 27 27 29 30 32
nan nan nan nan nan nan nan nan nan nan nan nan nan nan nan nan nan nan nan nan nan nan nan nan nan nan 29 36 44 43 43 46 48 45 46 46 39 32 30 28 25 23 24 24 26 28 26 23 23 23 23 23 23 24 24 22 21 19 20 20 22 23 23 22 22 22 21 21 21 20 20 20 20 20 21 21 21 21 22 25 27 27 27 29 31 31
nan nan nan nan nan nan nan nan nan nan nan nan nan nan nan nan nan nan nan nan nan nan nan nan nan nan 33 34 45 47 47 47 45 45 47 45 36 31 30 30 28 26 25 25 26 27 26 24 24 24 24 23 23 23 21 20 19 18 20 22 23 23 23 22 21 nan nan nan nan nan nan nan nan 21 20 20 21 21 24 26 27 28 28 30 31 31
nan nan nan nan nan nan nan nan nan nan nan nan nan nan nan nan nan nan nan nan nan nan nan 30 31 33 39 35 40 46 50 48 44 44 48 46 36 31 30 30 29 29 28 27 27 27 26 25 25 25 24 23 21 20 20 19 20 20 21 21 21 21 21 21 nan nan nan nan nan nan nan nan nan nan nan 19 19 20 25 27 28 27 29 31 32 33
nan nan nan nan nan nan nan nan nan nan nan nan nan nan nan nan nan nan nan nan nan nan nan 34 37 39 36 44 42 44 49 48 45 46 47 44 37 31 30 30 29 28 28 27 28 26 27 26 25 23 22 21 20 19 19 19 19 21 22 20 20 19 nan nan nan nan nan nan nan nan nan nan nan nan nan 19 18 20 25 27 28 28 30 32 33 34
nan nan nan nan nan nan nan nan nan nan nan nan nan nan nan nan nan nan nan nan nan nan nan 35 35 32 32 35 35 42 46 47 48 50 48 44 39 35 31 30 28 27 28 28 28 28 28 27 25 24 22 20 18 17 18 20 21 22 21 19 nan nan nan nan nan nan nan nan nan nan nan nan nan nan 19 19 19 21 24 26 26 27 29 30 31 33
nan nan nan nan nan nan nan nan nan nan nan nan nan nan nan nan nan nan nan nan nan nan nan 38 33 32 31 36 37 37 39 44 47 49 47 42 40 38 35 34 32 30 31 31 30 30 30 28 26 25 22 19 20 21 21 21 21 21 19 nan nan nan nan nan nan nan nan nan nan nan nan nan nan nan nan 19 21 24 25 25 25 26 28 29 30 32
nan nan nan nan nan nan nan nan nan nan nan nan nan nan nan nan nan nan nan nan nan nan nan 40 39 40 39 37 33 35 36 42 45 44 44 42 41 39 38 37 35 32 32 31 29 30 29 28 26 24 21 20 19 19 20 21 nan nan nan nan nan nan nan nan nan nan nan nan nan nan nan nan nan 20 19 20 22 24 25 25 25 26 26 28 30 31
nan nan nan nan nan nan nan nan nan nan nan nan nan nan nan nan nan nan nan nan nan nan nan 45 46 44 46 41 38 41 41 41 43 46 46 44 42 40 39 37 35 33 31 29 29 nan nan nan nan 22 20 18 17 19 nan nan nan nan nan nan nan nan nan nan nan nan nan nan nan nan nan nan nan nan nan 21 23 24 24 24 25 25 27 28 28 29
nan nan nan nan nan nan nan nan nan nan nan nan nan nan nan nan nan nan nan nan nan nan nan nan 39 43 43 46 39 47 47 45 46 49 48 46 42 40 37 36 37 nan nan nan nan nan nan nan 22 20 19 16 nan nan nan nan nan nan nan nan nan nan nan nan nan nan nan nan nan nan nan nan nan nan nan nan nan nan nan 24 25 25 25 26 26 27
nan nan nan nan nan nan nan nan nan nan nan nan nan nan nan nan nan nan nan nan nan nan nan nan 33 33 40 40 47 50 48 45 44 45 45 44 42 39 38 37 38 nan nan nan nan 28 25 24 23 20 nan nan nan nan nan nan nan nan nan nan nan nan nan nan nan nan nan nan nan nan nan nan nan nan nan nan nan nan nan nan 26 25 nan 25 25 26
29 nan nan nan nan nan nan nan nan nan nan nan nan nan nan nan nan nan nan nan nan nan nan 28 29 30 37 40 46 49 47 42 39 40 40 41 40 41 39 nan nan nan nan nan nan 25 24 25 nan nan nan nan nan nan nan nan nan nan nan nan nan nan nan nan nan nan nan nan nan nan nan nan nan nan nan nan nan nan nan nan nan nan nan nan nan 25
nan nan nan nan nan nan nan nan nan nan nan nan nan nan nan nan nan nan nan nan nan nan nan nan 28 28 32 35 42 47 44 38 37 36 37 38 39 41 39 nan nan nan nan 31 28 28 29 nan nan nan nan nan nan nan nan nan nan nan nan nan nan nan nan nan nan nan nan nan nan nan nan nan nan nan nan nan nan nan nan nan nan nan nan nan nan nan
nan nan nan nan nan nan nan nan nan nan nan nan nan nan nan nan nan nan nan nan nan nan nan 34 36 35 34 37 39 42 41 36 33 34 33 34 37 39 nan nan nan nan 35 34 33 nan nan nan nan nan nan nan nan nan nan nan nan nan nan nan nan nan nan nan nan nan nan nan nan nan nan nan nan nan nan nan nan nan nan nan nan nan nan nan nan nan
nan nan nan nan nan nan nan nan nan nan nan nan nan nan nan nan nan nan nan nan nan nan 35 31 40 37 38 35 36 37 37 35 31 31 33 31 33 37 nan nan nan nan 37 37 36 nan nan nan nan nan nan nan nan nan nan nan nan nan nan nan nan nan nan nan nan nan nan nan nan nan nan nan nan nan nan nan nan nan nan nan nan nan nan nan nan nan
nan nan nan nan nan nan nan nan nan nan nan nan nan nan nan nan nan nan nan nan nan 40 35 33 39 42 35 35 35 38 38 34 29 28 29 27 nan nan nan nan nan 38 38 37 nan nan nan nan nan nan nan nan nan nan nan nan nan nan nan nan nan nan nan nan nan nan nan nan nan nan nan nan nan nan nan nan nan nan nan nan nan nan nan nan nan nan
nan nan nan nan nan nan nan nan nan nan nan nan nan nan nan nan nan nan nan nan nan nan 31 29 32 39 34 34 36 37 36 34 30 28 27 28 nan nan nan nan 38 38 37 nan nan nan nan nan nan nan nan nan nan nan nan nan nan nan nan nan nan nan nan nan nan nan nan nan nan nan nan nan nan nan nan nan nan nan nan nan nan nan nan nan nan nan
nan nan nan nan nan nan nan nan 42 nan nan nan 38 47 50 47 35 nan nan nan nan nan 34 35 33 36 37 38 39 37 34 34 31 28 27 28 31 nan nan nan nan 36 nan nan nan nan nan nan nan nan nan nan nan nan nan nan nan nan nan nan nan nan nan nan nan nan nan nan nan nan nan nan nan nan nan nan nan nan nan nan nan nan nan nan nan nan
nan 41 42 nan nan nan nan nan nan nan nan nan 39 51 56 48 41 nan 42 45 48 43 42 44 45 43 39 41 41 38 34 31 29 27 26 27 nan nan nan nan 35 33 32 32 nan nan nan nan nan nan nan nan nan nan nan nan nan nan nan nan nan nan nan nan nan nan nan nan nan nan nan nan nan nan nan nan nan nan nan nan nan nan nan nan nan nan
nan 40 43 nan nan nan nan nan nan nan nan nan 41 50 53 48 40 38 39 40 44 40 45 46 46 43 42 43 39 36 33 32 31 29 28 26 nan nan nan 34 34 32 32 32 nan nan nan nan nan nan nan nan nan nan nan nan nan nan nan nan nan nan nan nan nan nan nan nan nan nan nan nan nan nan nan nan nan nan nan nan nan nan nan nan nan nan
nan nan nan nan nan nan 40 42 nan nan nan nan nan 38 41 42 47 45 47 49 43 47 46 39 35 39 43 43 40 33 32 31 32 29 28 27 25 nan 30 34 34 33 34 34 35 nan nan nan nan nan nan nan nan nan nan nan nan nan nan nan nan nan nan nan nan nan nan nan nan nan nan nan nan nan nan nan nan nan nan nan nan nan nan nan nan nan
nan nan nan nan nan 37 41 40 nan nan nan nan 33 33 38 42 50 49 43 43 47 51 43 36 39 40 43 43 40 36 35 30 29 26 23 22 23 nan 29 31 32 33 34 34 nan nan nan nan nan nan nan nan nan nan nan nan nan nan nan nan nan nan nan nan nan nan nan nan nan nan nan nan nan nan nan nan nan nan nan nan nan nan nan nan nan nan
nan nan nan nan nan nan 40 nan nan nan nan 34 34 37 37 40 52 53 47 49 48 51 54 51 47 44 42 42 40 37 35 31 28 29 nan nan nan nan 26 28 29 31 33 34 37 37 nan nan nan nan nan nan nan nan nan nan nan nan nan nan nan nan nan nan nan nan nan nan nan nan nan nan nan nan nan nan nan nan nan nan nan nan nan nan nan nan
nan nan nan nan nan nan nan nan nan nan 31 nan 35 37 35 40 46 49 46 51 49 45 47 48 46 46 45 44 39 37 36 33 nan 29 nan nan nan nan 27 29 32 34 34 34 nan nan nan nan nan nan nan nan nan nan nan nan nan nan nan nan nan nan nan nan nan nan nan nan nan nan nan nan nan nan nan nan nan nan nan nan nan nan nan nan nan nan
nan nan nan nan nan nan nan nan nan 34 nan nan nan 35 33 36 39 nan 34 44 49 45 45 50 49 46 45 43 41 37 36 35 33 nan nan nan nan nan nan 32 34 34 35 nan nan nan nan nan nan nan nan nan nan nan nan nan nan nan nan nan nan nan nan nan nan nan nan nan nan nan nan nan nan nan nan nan nan nan nan nan nan nan nan nan nan nan
nan nan nan nan nan nan nan nan nan nan nan nan nan 35 36 38 41 nan nan 36 44 45 40 45 45 45 45 43 40 36 36 36 31 nan nan nan nan nan nan nan nan nan nan nan nan nan nan nan nan nan nan nan nan nan nan nan nan nan nan nan nan nan nan nan nan nan nan nan nan nan nan nan nan nan nan nan nan nan nan nan nan nan nan nan nan nan
nan 35 nan nan nan nan nan nan nan nan nan nan nan 32 34 36 38 nan nan nan 39 40 38 38 40 38 40 40 37 34 32 29 24 22 nan nan nan nan nan nan nan nan nan nan nan nan nan nan nan nan nan nan nan nan nan nan nan nan nan nan nan nan nan nan nan nan nan nan nan nan nan nan nan nan nan nan nan nan nan nan nan nan nan nan nan nan
nan nan nan nan nan nan nan nan nan nan nan nan nan nan 32 nan 35 36 nan nan 31 37 38 36 36 34 31 31 29 24 23 22 18 19 nan nan nan nan nan nan nan nan nan nan nan nan nan nan nan nan nan nan nan nan nan nan nan nan nan nan nan nan nan nan nan nan nan nan nan nan nan nan nan nan nan nan nan nan nan nan nan nan nan nan nan nan
nan nan nan nan nan nan nan nan nan nan nan nan nan nan nan nan 37 35 nan nan nan 37 36 37 37 32 28 26 24 23 26 23 nan nan nan nan nan nan nan nan nan nan nan nan nan nan nan nan nan nan nan nan nan nan nan nan nan nan nan nan nan nan nan nan nan nan nan nan nan nan nan nan nan nan nan nan nan nan nan nan nan nan nan nan nan nan
nan nan nan nan nan nan nan nan nan nan nan nan nan nan nan nan nan nan nan nan nan nan 30 31 34 29 28 31 28 23 24 25 25 nan nan nan nan nan nan nan nan nan nan nan nan nan nan nan nan nan nan nan nan nan nan nan nan nan nan nan nan nan nan nan nan nan nan nan nan nan nan nan nan nan nan nan nan nan nan nan nan nan nan nan nan nan
nan nan nan nan nan nan nan nan nan nan nan nan nan nan nan nan nan nan 27 nan nan nan nan 23 25 25 27 25 22 24 25 25 24 nan nan nan nan nan nan nan nan nan nan nan nan nan nan nan nan nan nan nan nan nan nan nan nan nan nan nan nan nan nan nan nan nan nan nan nan nan nan nan nan nan nan nan nan nan nan nan nan nan nan nan nan nan
nan nan nan nan nan nan nan nan nan nan nan nan nan nan nan nan nan nan 24 26 nan nan nan 22 24 24 22 21 21 24 25 24 22 nan nan nan nan nan nan nan nan nan nan nan nan nan nan nan nan nan nan nan nan nan nan nan nan nan nan nan nan nan nan nan nan nan nan nan nan nan nan nan nan nan nan nan nan nan nan nan nan nan nan nan nan nan
nan nan nan nan nan nan nan nan nan nan nan nan nan nan nan nan nan 26 26 nan nan nan nan nan nan 21 21 22 25 26 26 24 24 nan nan nan nan nan nan nan nan nan nan nan nan nan nan nan nan nan nan nan nan nan nan nan nan nan nan nan nan nan nan nan nan nan nan nan nan nan nan nan nan nan nan nan nan nan nan nan nan nan nan nan nan nan
nan nan nan nan nan nan nan nan nan nan nan nan nan nan nan nan nan nan 26 nan nan nan nan nan nan nan nan nan 28 27 27 nan nan nan nan nan nan nan nan nan nan nan nan nan nan nan nan nan nan nan nan nan nan nan nan nan nan nan nan nan nan nan nan nan nan nan nan nan nan nan nan nan nan nan nan nan nan nan nan nan nan nan nan nan nan nan
nan nan nan nan nan nan nan nan nan nan nan nan nan nan nan nan nan nan nan nan nan nan nan nan nan nan nan nan nan 28 nan nan nan 28 27 nan nan nan nan nan nan nan nan nan nan nan nan nan nan nan nan nan nan nan nan nan nan nan nan nan nan nan nan nan nan nan nan nan nan nan nan nan nan nan nan nan nan nan nan nan nan nan nan nan nan nan
nan nan nan nan nan nan nan nan nan nan nan nan nan nan nan nan nan nan nan nan nan nan nan nan nan nan nan nan nan nan nan nan nan 28 27 28 nan nan nan nan nan nan nan nan nan nan nan nan nan nan nan nan nan nan nan nan nan nan nan nan nan nan nan nan nan nan nan nan nan nan nan nan nan nan nan nan nan nan nan nan nan nan nan nan nan nan
nan nan nan nan nan nan nan nan nan nan nan nan nan nan nan nan nan nan nan nan nan nan nan nan nan nan nan nan nan nan nan nan nan 29 30 nan nan nan nan nan nan nan nan nan nan nan nan nan nan nan nan nan nan nan nan nan nan nan nan nan nan nan nan nan nan nan nan nan nan nan nan nan nan nan nan nan nan nan nan nan nan nan nan nan nan nan
nan nan nan nan nan nan nan nan nan nan nan nan nan nan nan nan nan nan nan nan nan nan nan nan nan nan nan nan nan nan nan nan nan nan nan nan nan nan nan nan nan nan nan nan nan nan nan nan nan nan nan nan nan nan nan nan nan nan nan nan nan nan nan nan nan nan nan nan nan nan nan nan nan nan nan nan nan nan nan nan nan nan nan nan nan nan
nan nan nan nan nan nan nan nan nan nan nan nan nan nan nan nan nan nan nan nan nan nan nan nan nan nan nan nan nan nan nan nan nan nan nan nan nan nan nan nan nan nan nan nan nan nan nan nan nan nan nan nan nan nan nan nan nan nan nan nan nan nan nan nan nan nan nan nan nan nan nan nan nan nan nan nan nan nan nan nan nan nan nan nan nan nan
Wind_Direction
nan nan nan nan nan nan nan nan nan nan nan nan nan nan nan nan nan nan nan nan nan nan nan nan nan nan nan nan nan nan nan 265 258 257 256 255 257 258 261 257 255 255 255 253 258 260 267 271 255 225 241 257 262 266 270 275 280 284 286 284 286 292 293 296 299 300 307 315 315 314 317 320 321 322 325 324 327 328 331 332 333 334 334 332 332 331
nan nan nan nan nan nan nan nan nan nan nan nan nan nan nan nan nan nan nan nan nan nan nan nan nan nan nan nan nan nan 252 271 261 259 257 258 258 259 261 254 252 252 249 254 254 263 265 266 270 248 246 254 264 266 271 275 278 281 288 290 294 293 292 290 297 303 304 306 309 307 311 310 314 320 322 328 329 331 330 331 331 333 333 332 330 328
nan nan nan nan nan nan nan nan nan nan nan nan nan nan nan nan nan nan nan nan nan nan nan nan nan nan nan nan nan nan 258 263 271 275 276 271 265 261 259 254 252 252 257 257 261 271 271 267 266 269 257 252 260 269 268 272 272 274 279 284 291 294 294 295 295 297 300 298 300 302 306 305 307 309 311 314 320 320 326 330 332 332 330 328 326 323
nan nan nan nan nan nan nan nan nan nan nan nan nan nan nan nan nan nan nan nan nan nan nan nan nan nan nan nan nan nan 266 265 270 274 273 277 279 272 269 261 256 259 265 270 271 274 270 262 269 264 253 262 266 263 265 268 277 278 281 284 287 288 288 292 296 299 303 305 308 307 309 311 310 311 309 307 312 314 321 329 333 329 318 313 317 311
nan nan nan nan nan nan nan nan nan nan nan nan nan nan nan nan nan nan nan nan nan nan nan nan nan nan nan nan nan 247 264 271 269 270 266 265 268 269 267 262 266 273 273 271 260 247 247 259 263 253 254 253 254 257 260 266 272 277 283 284 289 289 290 294 295 297 300 300 303 306 304 303 302 301 302 305 307 314 320 324 328 328 311 309 309 307
nan nan nan nan nan nan nan nan nan nan nan nan nan nan nan nan nan nan nan nan nan nan nan nan nan nan nan nan nan 250 251 259 263 268 268 269 271 274 276 274 267 267 258 259 253 251 253 262 256 242 247 252 249 243 239 242 256 267 277 280 279 283 283 290 296 299 299 303 305 305 307 304 306 311 311 320 325 326 330 334 329 319 307 309 312 322
nan nan nan nan nan nan nan nan nan nan nan nan nan nan nan nan nan nan nan nan nan nan nan nan nan nan nan nan 244 252 256 259 259 268 270 273 278 276 273 270 268 263 253 251 253 252 251 251 250 246 243 244 243 235 236 243 248 249 251 253 263 270 278 285 287 291 293 294 299 302 305 304 305 306 312 315 320 327 330 331 330 320 307 311 325 330
nan nan nan nan nan nan nan nan nan nan nan nan nan nan nan nan nan nan nan nan nan nan nan nan nan nan nan nan nan 256 254 257 261 266 271 274 275 269 264 266 262 250 246 248 249 246 241 239 246 247 240 238 235 236 240 244 244 244 243 248 252 261 263 267 277 278 284 285 286 288 294 299 301 306 311 314 316 316 319 322 325 317 313 319 325 327
nan nan nan nan nan nan nan nan nan nan nan nan nan nan nan nan nan nan nan nan nan nan nan nan nan nan nan nan nan 246 251 256 262 272 274 271 263 258 256 251 248 251 252 254 254 248 243 241 240 235 233 230 234 240 245 246 242 242 242 247 254 257 260 265 269 272 272 278 284 287 293 292 299 304 309 312 313 312 315 315 319 318 318 322 327 328
nan nan nan nan nan nan nan nan nan nan nan nan nan nan nan nan nan nan nan nan nan nan nan nan nan nan nan nan nan nan 257 259 266 273 271 266 263 262 260 252 250 254 261 261 259 250 242 241 240 237 233 230 232 239 243 240 240 240 242 248 254 266 265 266 266 268 271 277 283 286 291 295 300 306 308 307 308 312 315 317 317 316 318 324 325 325
nan nan nan nan nan nan nan nan nan nan nan nan nan nan nan nan nan nan nan nan nan nan nan nan nan nan nan nan nan nan 257 267 264 260 267 270 268 264 262 263 259 258 262 260 253 243 236 234 238 237 234 230 230 233 236 236 238 242 246 248 255 259 257 257 256 254 256 262 270 278 284 289 297 305 306 303 307 313 314 315 316 317 319 322 324 322
nan nan nan nan nan nan nan nan nan nan nan nan nan nan nan nan nan nan nan nan nan nan nan nan nan nan nan nan nan nan 253 276 275 277 278 278 277 274 270 267 266 265 261 252 247 240 234 233 234 234 232 227 227 231 233 237 241 243 246 246 251 254 254 253 254 255 256 263 267 273 278 282 288 292 297 302 308 312 314 315 316 317 317 319 322 321
nan nan nan nan nan nan nan nan nan nan nan nan nan nan nan nan nan nan nan nan nan nan nan nan nan nan nan 224 206 217 nan 258 269 278 280 277 276 273 269 269 266 262 259 252 247 243 234 234 235 231 225 223 226 231 234 237 243 245 248 251 253 254 253 250 251 250 254 259 266 272 277 285 289 289 295 302 304 311 311 311 311 312 314 317 317 319
nan nan nan nan nan nan nan nan nan nan nan nan nan nan nan nan nan nan nan nan nan nan nan nan nan nan 230 219 207 225 248 257 260 264 266 269 272 271 266 266 266 261 256 250 245 244 243 242 239 231 226 227 227 232 237 239 242 245 251 253 254 253 252 251 253 256 259 262 268 275 280 284 290 293 296 301 302 305 309 310 313 316 318 318 320 321
nan nan nan nan nan nan nan nan nan nan nan nan nan nan nan nan nan nan nan nan nan nan nan nan nan nan 216 213 210 222 243 250 255 259 260 262 266 265 263 268 267 263 253 249 250 251 250 246 237 227 225 227 230 236 239 242 246 249 248 247 250 252 251 254 258 nan nan nan nan nan nan nan nan 296 297 303 308 312 314 315 316 320 320 319 322 325
nan nan nan nan nan nan nan nan nan nan nan nan nan nan nan nan nan nan nan nan nan nan nan 215 217 212 217 210 215 217 231 246 257 261 263 264 267 268 267 270 269 263 256 254 257 255 248 240 232 226 225 228 233 238 242 245 248 251 253 253 253 255 256 257 nan nan nan nan nan nan nan nan nan nan nan 304 310 315 317 317 320 322 323 325 328 328
nan nan nan nan nan nan nan nan nan nan nan nan nan nan nan nan nan nan nan nan nan nan nan 217 221 217 222 220 222 224 228 237 246 253 257 263 266 267 268 268 266 260 255 255 258 255 250 240 233 231 232 233 239 245 250 254 257 260 259 258 255 254 nan nan nan nan nan nan nan nan nan nan nan nan nan 305 313 316 317 317 322 325 328 331 331 329
nan nan nan nan nan nan nan nan nan nan nan nan nan nan nan nan nan nan nan nan nan nan nan 212 219 218 223 224 224 228 231 236 242 249 255 259 261 263 265 265 263 257 253 254 254 251 246 239 236 234 233 236 242 248 252 253 255 258 259 261 nan nan nan nan nan nan nan nan nan nan nan nan nan nan 301 310 315 315 314 317 321 326 329 332 333 332
nan nan nan nan nan nan nan nan nan nan nan nan nan nan nan nan nan nan nan nan nan nan nan 206 219 220 224 233 237 242 242 245 244 249 256 260 259 261 261 262 261 257 251 246 243 243 238 234 232 235 238 239 243 247 253 256 260 264 268 nan nan nan nan nan nan nan nan nan nan nan nan nan nan nan nan 312 314 312 312 316 320 326 331 336 337 337
nan nan nan nan nan nan nan nan nan nan nan nan nan nan nan nan nan nan nan nan nan nan nan 213 214 213 216 226 242 254 255 257 256 256 259 262 265 263 260 257 257 255 251 245 239 238 237 232 229 231 236 240 245 253 259 263 nan nan nan nan nan nan nan nan nan nan nan nan nan nan nan nan nan 296 301 306 308 308 312 317 321 326 330 335 340 341
nan nan nan nan nan nan nan nan nan nan nan nan nan nan nan nan nan nan nan nan nan nan nan 224 219 220 220 225 231 232 241 249 255 257 258 261 263 262 260 259 259 258 254 248 239 nan nan nan nan 234 238 244 253 263 nan nan nan nan nan nan nan nan nan nan nan nan nan nan nan nan nan nan nan nan nan 297 299 305 310 314 320 323 330 335 336 342
nan nan nan nan nan nan nan nan nan nan nan nan nan nan nan nan nan nan nan nan nan nan nan nan 228 228 225 220 227 238 240 241 243 247 251 257 258 257 256 256 257 nan nan nan nan nan nan nan 236 239 245 247 nan nan nan nan nan nan nan nan nan nan nan nan nan nan nan nan nan nan nan nan nan nan nan nan nan nan nan 308 315 320 325 328 335 342
nan nan nan nan nan nan nan nan nan nan nan nan nan nan nan nan nan nan nan nan nan nan nan nan 241 230 225 223 235 240 244 245 248 251 251 253 253 253 253 253 254 nan nan nan nan 236 235 238 243 248 nan nan nan nan nan nan nan nan nan nan nan nan nan nan nan nan nan nan nan nan nan nan nan nan nan nan nan nan nan nan 313 315 nan 324 331 340
202 nan nan nan nan nan nan nan nan nan nan nan nan nan nan nan nan nan nan nan nan nan nan 224 232 232 229 231 242 245 249 252 251 256 259 255 250 249 251 nan nan nan nan nan nan 237 236 236 nan nan nan nan nan nan nan nan nan nan nan nan nan nan nan nan nan nan nan nan nan nan nan nan nan nan nan nan nan nan nan nan nan nan nan nan nan 332
nan nan nan nan nan nan nan nan nan nan nan nan nan nan nan nan nan nan nan nan nan nan nan nan 240 234 239 242 246 251 253 254 257 259 261 257 249 246 249 nan nan nan nan 243 238 235 236 nan nan nan nan nan nan nan nan nan nan nan nan nan nan nan nan nan nan nan nan nan nan nan nan nan nan nan nan nan nan nan nan nan nan nan nan nan nan nan
nan nan nan nan nan nan nan nan nan nan nan nan nan nan nan nan nan nan nan nan nan nan nan 231 232 241 249 249 250 253 260 261 260 259 255 257 252 246 nan nan nan nan 236 234 235 nan nan nan nan nan nan nan nan nan nan nan nan nan nan nan nan nan nan nan nan nan nan nan nan nan nan nan nan nan nan nan nan nan nan nan nan nan nan nan nan nan
nan nan nan nan nan nan nan nan nan nan nan nan nan nan nan nan nan nan nan nan nan nan 211 222 249 251 257 257 261 264 265 266 262 259 259 259 254 244 nan nan nan nan 233 231 231 nan nan nan nan nan nan nan nan nan nan nan nan nan nan nan nan nan nan nan nan nan nan nan nan nan nan nan nan nan nan nan nan nan nan nan nan nan nan nan nan nan
nan nan nan nan nan nan nan nan nan nan nan nan nan nan nan nan nan nan nan nan nan 223 216 222 249 251 254 256 255 262 265 266 262 257 256 254 nan nan nan nan nan 231 230 229 nan nan nan nan nan nan nan nan nan nan nan nan nan nan nan nan nan nan nan nan nan nan nan nan nan nan nan nan nan nan nan nan nan nan nan nan nan nan nan nan nan nan
nan nan nan nan nan nan nan nan nan nan nan nan nan nan nan nan nan nan nan nan nan nan 240 247 250 252 253 258 262 264 267 268 264 259 254 253 nan nan nan nan 234 230 229 nan nan nan nan nan nan nan nan nan nan nan nan nan nan nan nan nan nan nan nan nan nan nan nan nan nan nan nan nan nan nan nan nan nan nan nan nan nan nan nan nan nan nan
nan nan nan nan nan nan nan nan 198 nan nan nan 202 201 200 196 192 nan nan nan nan nan 245 262 249 244 249 251 255 259 259 262 261 259 256 255 254 nan nan nan nan 229 nan nan nan nan nan nan nan nan nan nan nan nan nan nan nan nan nan nan nan nan nan nan nan nan nan nan nan nan nan nan nan nan nan nan nan nan nan nan nan nan nan nan nan nan
nan 202 204 nan nan nan nan nan nan nan nan nan 195 195 193 194 200 nan 202 214 221 221 239 242 240 241 237 248 250 253 256 257 260 262 264 260 nan nan nan nan 230 227 226 227 nan nan nan nan nan nan nan nan nan nan nan nan nan nan nan nan nan nan nan nan nan nan nan nan nan nan nan nan nan nan nan nan nan nan nan nan nan nan nan nan nan nan
nan 204 205 nan nan nan nan nan nan nan nan nan 197 194 192 191 200 201 209 206 222 228 239 237 238 236 243 248 251 257 260 264 265 265 265 262 nan nan nan 235 228 225 226 229 nan nan nan nan nan nan nan nan nan nan nan nan nan nan nan nan nan nan nan nan nan nan nan nan nan nan nan nan nan nan nan nan nan nan nan nan nan nan nan nan nan nan
nan nan nan nan nan nan 197 203 nan nan nan nan nan 195 194 191 198 199 211 207 223 242 235 237 238 244 253 253 257 262 267 268 269 268 265 258 248 nan 242 235 229 227 227 229 231 nan nan nan nan nan nan nan nan nan nan nan nan nan nan nan nan nan nan nan nan nan nan nan nan nan nan nan nan nan nan nan nan nan nan nan nan nan nan nan nan nan
nan nan nan nan nan 206 198 202 nan nan nan nan 205 203 199 196 202 203 206 211 207 209 217 234 249 247 253 255 260 267 270 271 268 256 247 246 240 nan 236 235 233 232 230 230 nan nan nan nan nan nan nan nan nan nan nan nan nan nan nan nan nan nan nan nan nan nan nan nan nan nan nan nan nan nan nan nan nan nan nan nan nan nan nan nan nan nan
nan nan nan nan nan nan 206 nan nan nan nan 208 203 205 202 210 215 210 207 216 214 223 231 235 242 246 249 251 255 258 257 257 258 257 nan nan nan nan 230 230 233 234 232 233 235 235 nan nan nan nan nan nan nan nan nan nan nan nan nan nan nan nan nan nan nan nan nan nan nan nan nan nan nan nan nan nan nan nan nan nan nan nan nan nan nan nan
nan nan nan nan nan nan nan nan nan nan 213 nan 210 209 213 219 219 213 211 215 217 224 237 240 243 245 248 251 252 252 251 247 nan 236 nan nan nan nan 228 226 228 231 233 234 nan nan nan nan nan nan nan nan nan nan nan nan nan nan nan nan nan nan nan nan nan nan nan nan nan nan nan nan nan nan nan nan nan nan nan nan nan nan nan nan nan nan
nan nan nan nan nan nan nan nan nan 218 nan nan nan 215 214 222 220 nan 223 215 219 225 231 238 242 245 248 250 252 253 254 251 245 nan nan nan nan nan nan 232 234 234 234 nan nan nan nan nan nan nan nan nan nan nan nan nan nan nan nan nan nan nan nan nan nan nan nan nan nan nan nan nan nan nan nan nan nan nan nan nan nan nan nan nan nan nan
nan nan nan nan nan nan nan nan nan nan nan nan nan 220 218 221 225 nan nan 218 213 223 231 242 245 249 250 253 256 258 260 254 243 nan nan nan nan nan nan nan nan nan nan nan nan nan nan nan nan nan nan nan nan nan nan nan nan nan nan nan nan nan nan nan nan nan nan nan nan nan nan nan nan nan nan nan nan nan nan nan nan nan nan nan nan nan
nan 221 nan nan nan nan nan nan nan nan nan nan nan 230 223 222 234 nan nan nan 216 221 228 242 247 247 256 262 262 262 255 247 231 222 nan nan nan nan nan nan nan nan nan nan nan nan nan nan nan nan nan nan nan nan nan nan nan nan nan nan nan nan nan nan nan nan nan nan nan nan nan nan nan nan nan nan nan nan nan nan nan nan nan nan nan nan
nan nan nan nan nan nan nan nan nan nan nan nan nan nan 227 nan 228 236 nan nan 227 225 231 239 249 256 253 253 254 247 248 244 229 218 nan nan nan nan nan nan nan nan nan nan nan nan nan nan nan nan nan nan nan nan nan nan nan nan nan nan nan nan nan nan nan nan nan nan nan nan nan nan nan nan nan nan nan nan nan nan nan nan nan nan nan nan
nan nan nan nan nan nan nan nan nan nan nan nan nan nan nan nan 229 238 nan nan nan 236 238 243 246 249 249 239 218 214 196 222 nan nan nan nan nan nan nan nan nan nan nan nan nan nan nan nan nan nan nan nan nan nan nan nan nan nan nan nan nan nan nan nan nan nan nan nan nan nan nan nan nan nan nan nan nan nan nan nan nan nan nan nan nan nan
nan nan nan nan nan nan nan nan nan nan nan nan nan nan nan nan nan nan nan nan nan nan 242 244 245 240 230 215 216 221 235 239 239 nan nan nan nan nan nan nan nan nan nan nan nan nan nan nan nan nan nan nan nan nan nan nan nan nan nan nan nan nan nan nan nan nan nan nan nan nan nan nan nan nan nan nan nan nan nan nan nan nan nan nan nan nan
nan nan nan nan nan nan nan nan nan nan nan nan nan nan nan nan nan nan 236 nan nan nan nan 234 235 228 224 229 234 248 251 248 248 nan nan nan nan nan nan nan nan nan nan nan nan nan nan nan nan nan nan nan nan nan nan nan nan nan nan nan nan nan nan nan nan nan nan nan nan nan nan nan nan nan nan nan nan nan nan nan nan nan nan nan nan nan
nan nan nan nan nan nan nan nan nan nan nan nan nan nan nan nan nan nan 236 234 nan nan nan 224 217 224 233 242 250 251 254 253 247 nan nan nan nan nan nan nan nan nan nan nan nan nan nan nan nan nan nan nan nan nan nan nan nan nan nan nan nan nan nan nan nan nan nan nan nan nan nan nan nan nan nan nan nan nan nan nan nan nan nan nan nan nan
nan nan nan nan nan nan nan nan nan nan nan nan nan nan nan nan nan 218 220 nan nan nan nan nan nan 235 240 247 250 254 249 248 250 nan nan nan nan nan nan nan nan nan nan nan nan nan nan nan nan nan nan nan nan nan nan nan nan nan nan nan nan nan nan nan nan nan nan nan nan nan nan nan nan nan nan nan nan nan nan nan nan nan nan nan nan nan
nan nan nan nan nan nan nan nan nan nan nan nan nan nan nan nan nan nan 223 nan nan nan nan nan nan nan nan nan 252 246 249 nan nan nan nan nan nan nan nan nan nan nan nan nan nan nan nan nan nan nan nan nan nan nan nan nan nan nan nan nan nan nan nan nan nan nan nan nan nan nan nan nan nan nan nan nan nan nan nan nan nan nan nan nan nan nan
nan nan nan nan nan nan nan nan nan nan nan nan nan nan nan nan nan nan nan nan nan nan nan nan nan nan nan nan nan 251 nan nan nan 260 260 nan nan nan nan nan nan nan nan nan nan nan nan nan nan nan nan nan nan nan nan nan nan nan nan nan nan nan nan nan nan nan nan nan nan nan nan nan nan nan nan nan nan nan nan nan nan nan nan nan nan nan
nan nan nan nan nan nan nan nan nan nan nan nan nan nan nan nan nan nan nan nan nan nan nan nan nan nan nan nan nan nan nan nan nan 265 261 256 nan nan nan nan nan nan nan nan nan nan nan nan nan nan nan nan nan nan nan nan nan nan nan nan nan nan nan nan nan nan nan nan nan nan nan nan nan nan nan nan nan nan nan nan nan nan nan nan nan nan
nan nan nan nan nan nan nan nan nan nan nan nan nan nan nan nan nan nan nan nan nan nan nan nan nan nan nan nan nan nan nan nan nan 257 260 nan nan nan nan nan nan nan nan nan nan nan nan nan nan nan nan nan nan nan nan nan nan nan nan nan nan nan nan nan nan nan nan nan nan nan nan nan nan nan nan nan nan nan nan nan nan nan nan nan nan nan
nan nan nan nan nan nan nan nan nan nan nan nan nan nan nan nan nan nan nan nan nan nan nan nan nan nan nan nan nan nan nan nan nan nan nan nan nan nan nan nan nan nan nan nan nan nan nan nan nan nan nan nan nan nan nan nan nan nan nan nan nan nan nan nan nan nan nan nan nan nan nan nan nan nan nan nan nan nan nan nan nan nan nan nan nan nan
nan nan nan nan nan nan nan nan nan nan nan nan nan nan nan nan nan nan nan nan nan nan nan nan nan nan nan nan nan nan nan nan nan nan nan nan nan nan nan nan nan nan nan nan nan nan nan nan nan nan nan nan nan nan nan nan nan nan nan nan nan nan nan nan nan nan nan nan nan nan nan nan nan nan nan nan nan nan nan nan nan nan nan nan nan nan